Regional Weather Roundup
Issued by NWS

Home | Current Version | Previous Version | Graphics & Text | Print | Product List | Glossary On
Versions: 1 2 3 4 5 6 7 8 9 10 11 12 13 14 15 16 17 18 19 20 21 22 23 24 25 26 27 28 29 30 31 32 33 34 35 36 37 38 39 40 41 42 43 44 45 46 47 48 49 50
000
ASUS45 KABQ 171710
RWRNM
NEW MEXICO REGIONAL WEATHER ROUNDUP
NATIONAL WEATHER SERVICE ALBUQUERQUE NM
1100 AM MDT THU AUG 17 2017

NOTE: "FAIR" MEANS FEW OR NO CLOUDS BELOW 12,000 FEET AGL WITH NO
       SIGNIFICANT WEATHER OR OBSTRUCTIONS TO VISION.

      THIS PRODUCT IS RELEASED AS TWO VERSIONS.  ONE VERSION NEAR
      THE TOP OF THE HOUR CONTAINING PRELIMINARY DATA FROM ALBUQUERQUE
      AND OTHER STATIONS.  A FINAL VERSION WITH ADDITIONAL DATA IS
      ISSUED ABOUT 10 MINUTES AFTER THE HOUR.

NMZ501-503-504-510>518-171800-
NORTHWEST PLATEAU/NORTHCENTRAL MOUNTAINS

CITY           SKY/WX    TMP DP  RH WIND       PRES   REMARKS
FARMINGTON     FAIR      74  34  23 SE7       30.25R
LOS ALAMOS     FAIR      72  38  28 CALM      30.37S
SANTA FE       FAIR      78  44  29 NE7       30.30S
TAOS           PTSUNNY   69  40  34 N6        30.39R
ANGEL FIRE     FAIR      66  36  32 W13G20    30.45R

$$
NMZ402-403-502-505>509-171800-
WESTCENTRAL MOUNTAINS/SOUTHWEST MOUNTAINS

CITY           SKY/WX    TMP DP  RH WIND       PRES   REMARKS
GALLUP         FAIR      77  35  21 VRB7      30.33S
GRANTS         FAIR      77  32  19 CALM      30.34F
SILVER CITY    FAIR      81  41  24 CALM      30.26S

$$
NMZ407-409-411-412-171800-
SOUTHERN DESERTS

CITY           SKY/WX    TMP DP  RH WIND       PRES   REMARKS
DEMING         FAIR      84  45  25 S3        30.18S
LAS CRUCES     FAIR      87  41  19 NE3       30.19S
HOLLOMAN AFB   FAIR      91  49  23 S5        30.17S
ALAMOGORDO     FAIR      84  46  26 CALM      30.17S
T OR C         FAIR      86  37  17 VRB5      30.21S

$$
NMZ519>523-171800-
CENTRAL VALLEYS/CENTRAL HIGHLANDS

CITY           SKY/WX    TMP DP  RH WIND       PRES   REMARKS
ALBUQUERQUE    FAIR      79  39  23 VRB5      30.25S
DOUBLE EAGLE   MOSUNNY   81  39  22 VRB6      30.28S
MORIARTY ARPT  FAIR      80  41  25 CALM      30.31S
CLINES CORNERS FAIR      75  48  38 E3        30.36S
BELEN          FAIR      81  33  17 CALM      30.25S
SOCORRO        FAIR      82  37  19 N5        30.22S

$$
NMZ524>526-539-540-171800-
SOUTHCENTRAL MOUNTAINS

CITY           SKY/WX    TMP DP  RH WIND       PRES   REMARKS
RUIDOSO        FAIR      77  39  25 SW13G20   30.37R

$$
NMZ527>531-171800-
NORTHEAST HIGHLANDS/NORTHEAST PLAINS

CITY           SKY/WX    TMP DP  RH WIND       PRES   REMARKS
LAS VEGAS      FAIR      69  52  54 CALM      30.35S
RATON          FAIR      69  54  58 S6        30.30F
CLAYTON        FAIR      75  60  59 S14       30.22F

$$
NMZ532>537-171800-
EASTCENTRAL PLAINS

CITY           SKY/WX    TMP DP  RH WIND       PRES   REMARKS
SANTA ROSA     FAIR      77  56  49 CALM      30.20F
TUCUMCARI      FAIR      85  64  49 SW10      30.14F
CANNON AFB     FAIR      78  73  86 SE8       30.20F
CLOVIS AIRPORT FAIR      76  69  79 S9        30.20F

$$
NMZ028-029-538-171800-
SOUTHEAST PLAINS

CITY           SKY/WX    TMP DP  RH WIND       PRES   REMARKS
ROSWELL        FAIR      86  56  35 CALM      30.13S
ARTESIA        FAIR      84  63  48 VRB3      30.12S
CARLSBAD       FAIR      84  68  58 VRB3      30.09S
HOBBS          SUNNY     82  64  54 SE7       30.14S


$$



USA.gov is the U.S. government's official web portal to all federal, state and local government web resources and services.